Year,Month,Day,Hour,Minute,Value (Times are PST for windspeed in km/hr)
2010,10,23,00,00,0.20
2010,10,23,00,01,0.00
2010,10,23,00,02,0.10
2010,10,23,00,03,0.20
2010,10,23,00,04,0.30
2010,10,23,00,05,0.00
2010,10,23,00,06,0.10
2010,10,23,00,07,0.00
2010,10,23,00,08,0.00
2010,10,23,00,09,0.00
2010,10,23,00,10,0.00
2010,10,23,00,11,0.00
2010,10,23,00,12,0.00
2010,10,23,00,13,0.20
2010,10,23,00,14,0.00
2010,10,23,00,15,0.00
2010,10,23,00,16,0.00
2010,10,23,00,17,0.10
2010,10,23,00,18,0.20
2010,10,23,00,19,0.10
2010,10,23,00,20,0.10
2010,10,23,00,21,0.20
2010,10,23,00,22,0.50
2010,10,23,00,23,0.10
2010,10,23,00,24,0.20
2010,10,23,00,25,0.00
2010,10,23,00,26,0.10
2010,10,23,00,27,0.20
2010,10,23,00,28,0.20
2010,10,23,00,29,0.10
2010,10,23,00,30,0.10
2010,10,23,00,31,0.10
2010,10,23,00,32,0.70
2010,10,23,00,33,0.50
2010,10,23,00,34,1.70
2010,10,23,00,35,1.30
2010,10,23,00,36,1.40
2010,10,23,00,37,0.80
2010,10,23,00,38,3.50
2010,10,23,00,39,0.70
2010,10,23,00,40,1.10
2010,10,23,00,41,0.20
2010,10,23,00,42,0.20
2010,10,23,00,43,3.80
2010,10,23,00,44,1.30
2010,10,23,00,45,0.00
2010,10,23,00,46,0.10
2010,10,23,00,47,0.10
2010,10,23,00,48,0.00
2010,10,23,00,49,0.00
2010,10,23,00,50,0.00
2010,10,23,00,51,0.10
2010,10,23,00,52,0.30
2010,10,23,00,53,0.10
2010,10,23,00,54,0.30
2010,10,23,00,55,0.90
2010,10,23,00,56,3.30
2010,10,23,00,57,2.50
2010,10,23,00,58,2.30
2010,10,23,00,59,1.10
2010,10,23,01,00,3.00
2010,10,23,01,01,1.50
2010,10,23,01,02,0.20
2010,10,23,01,03,1.40
2010,10,23,01,04,0.20
2010,10,23,01,05,0.70
2010,10,23,01,06,0.20
2010,10,23,01,07,0.00
2010,10,23,01,08,0.00
2010,10,23,01,09,0.00
2010,10,23,01,10,0.00
2010,10,23,01,11,0.00
2010,10,23,01,12,0.10
2010,10,23,01,13,0.10
2010,10,23,01,14,0.00
2010,10,23,01,15,0.20
2010,10,23,01,16,0.20
2010,10,23,01,17,0.30
2010,10,23,01,18,0.00
2010,10,23,01,19,0.00
2010,10,23,01,20,0.00
2010,10,23,01,21,0.00
2010,10,23,01,22,0.00
2010,10,23,01,23,0.00
2010,10,23,01,24,0.00
2010,10,23,01,25,0.00
2010,10,23,01,26,0.00
2010,10,23,01,27,0.00
2010,10,23,01,28,0.00
2010,10,23,01,29,0.00
2010,10,23,01,30,0.00
2010,10,23,01,31,0.00
2010,10,23,01,32,0.00
2010,10,23,01,33,0.00
2010,10,23,01,34,0.00
2010,10,23,01,35,0.00
2010,10,23,01,36,0.00
2010,10,23,01,37,0.00
2010,10,23,01,38,0.00
2010,10,23,01,39,0.00
2010,10,23,01,40,0.00
2010,10,23,01,41,0.10
2010,10,23,01,42,0.00
2010,10,23,01,43,0.00
2010,10,23,01,44,0.00
2010,10,23,01,45,0.00
2010,10,23,01,46,0.00
2010,10,23,01,47,0.00
2010,10,23,01,48,0.00
2010,10,23,01,49,0.00
2010,10,23,01,50,0.00
2010,10,23,01,51,0.00
2010,10,23,01,52,0.00
2010,10,23,01,53,0.00
2010,10,23,01,54,0.00
2010,10,23,01,55,0.00
2010,10,23,01,56,0.00
2010,10,23,01,57,0.00
2010,10,23,01,58,0.00
2010,10,23,01,59,0.00
2010,10,23,02,00,0.10
2010,10,23,02,01,0.00
2010,10,23,02,02,0.30
2010,10,23,02,03,0.30
2010,10,23,02,04,0.00
2010,10,23,02,05,0.10
2010,10,23,02,06,0.30
2010,10,23,02,07,0.30
2010,10,23,02,08,0.60
2010,10,23,02,09,0.30
2010,10,23,02,10,0.20
2010,10,23,02,11,0.20
2010,10,23,02,12,0.00
2010,10,23,02,13,0.00
2010,10,23,02,14,0.10
2010,10,23,02,15,0.00
2010,10,23,02,16,0.00
2010,10,23,02,17,0.00
2010,10,23,02,18,0.00
2010,10,23,02,19,0.10
2010,10,23,02,20,0.00
2010,10,23,02,21,0.00
2010,10,23,02,22,0.00
2010,10,23,02,23,0.00
2010,10,23,02,24,0.10
2010,10,23,02,25,0.20
2010,10,23,02,26,0.30
2010,10,23,02,27,0.70
2010,10,23,02,28,0.00
2010,10,23,02,29,0.10
2010,10,23,02,30,0.00
2010,10,23,02,31,0.10
2010,10,23,02,32,0.00
2010,10,23,02,33,0.00
2010,10,23,02,34,0.00
2010,10,23,02,35,0.00
2010,10,23,02,36,0.00
2010,10,23,02,37,0.00
2010,10,23,02,38,0.00
2010,10,23,02,39,0.00
2010,10,23,02,40,0.00
2010,10,23,02,41,0.10
2010,10,23,02,42,0.10
2010,10,23,02,43,0.00
2010,10,23,02,44,0.20
2010,10,23,02,45,0.00
2010,10,23,02,46,0.70
2010,10,23,02,47,0.10
2010,10,23,02,48,0.00
2010,10,23,02,49,0.00
2010,10,23,02,50,0.00
2010,10,23,02,51,0.00
2010,10,23,02,52,0.10
2010,10,23,02,53,0.00
2010,10,23,02,54,0.00
2010,10,23,02,55,0.00
2010,10,23,02,56,0.00
2010,10,23,02,57,0.00
2010,10,23,02,58,0.20
2010,10,23,02,59,0.00
2010,10,23,03,00,0.20
2010,10,23,03,01,0.50
2010,10,23,03,02,1.80
2010,10,23,03,03,1.10
2010,10,23,03,04,0.20
2010,10,23,03,05,0.00
2010,10,23,03,06,0.10
2010,10,23,03,07,0.20
2010,10,23,03,08,0.20
2010,10,23,03,09,0.10
2010,10,23,03,10,0.20
2010,10,23,03,11,0.30
2010,10,23,03,12,0.30
2010,10,23,03,13,1.60
2010,10,23,03,14,3.70
2010,10,23,03,15,3.20
2010,10,23,03,16,2.20
2010,10,23,03,17,0.90
2010,10,23,03,18,1.80
2010,10,23,03,19,1.50
2010,10,23,03,20,0.20
2010,10,23,03,21,0.70
2010,10,23,03,22,0.20
2010,10,23,03,23,4.40
2010,10,23,03,24,2.80
2010,10,23,03,25,1.00
2010,10,23,03,26,0.60
2010,10,23,03,27,0.70
2010,10,23,03,28,2.30
2010,10,23,03,29,5.60
2010,10,23,03,30,2.90
2010,10,23,03,31,3.40
2010,10,23,03,32,3.50
2010,10,23,03,33,3.70
2010,10,23,03,34,1.10
2010,10,23,03,35,1.70
2010,10,23,03,36,1.50
2010,10,23,03,37,3.30
2010,10,23,03,38,2.50
2010,10,23,03,39,1.20
2010,10,23,03,40,3.00
2010,10,23,03,41,1.60
2010,10,23,03,42,0.30
2010,10,23,03,43,0.70
2010,10,23,03,44,0.90
2010,10,23,03,45,0.40
2010,10,23,03,46,0.50
2010,10,23,03,47,1.50
2010,10,23,03,48,2.90
2010,10,23,03,49,3.70
2010,10,23,03,50,0.90
2010,10,23,03,51,2.40
2010,10,23,03,52,2.80
2010,10,23,03,53,1.40
2010,10,23,03,54,4.10
2010,10,23,03,55,4.10
2010,10,23,03,56,3.00
2010,10,23,03,57,2.10
2010,10,23,03,58,0.70
2010,10,23,03,59,2.70
2010,10,23,04,00,1.40
2010,10,23,04,01,0.10
2010,10,23,04,02,0.20
2010,10,23,04,03,0.20
2010,10,23,04,06,0.20
2010,10,23,04,08,1.20
2010,10,23,04,09,0.30
2010,10,23,04,10,0.10
2010,10,23,04,11,0.10
2010,10,23,04,12,0.00
2010,10,23,04,13,0.00
2010,10,23,04,14,0.10
2010,10,23,04,15,0.30
2010,10,23,04,16,0.30
2010,10,23,04,17,0.20
2010,10,23,04,18,0.70
2010,10,23,04,19,0.00
2010,10,23,04,20,0.10
2010,10,23,04,21,0.10
2010,10,23,04,22,0.40
2010,10,23,04,23,0.20
2010,10,23,04,24,0.30
2010,10,23,04,25,0.10
2010,10,23,04,26,0.30
2010,10,23,04,27,4.20
2010,10,23,04,28,1.90
2010,10,23,04,29,1.20
2010,10,23,04,30,0.80
2010,10,23,04,31,0.10
2010,10,23,04,32,0.20
2010,10,23,04,33,0.00
2010,10,23,04,34,0.00
2010,10,23,04,35,0.20
2010,10,23,04,36,2.60
2010,10,23,04,37,2.40
2010,10,23,04,38,1.40
2010,10,23,04,39,2.00
2010,10,23,04,40,3.10
2010,10,23,04,41,4.40
2010,10,23,04,42,2.60
2010,10,23,04,43,1.80
2010,10,23,04,44,4.00
2010,10,23,04,45,4.70
2010,10,23,04,46,3.50
2010,10,23,04,47,2.60
2010,10,23,04,48,2.00
2010,10,23,04,49,0.90
2010,10,23,04,50,0.20
2010,10,23,04,51,0.10
2010,10,23,04,52,0.10
2010,10,23,04,53,0.10
2010,10,23,04,54,0.10
2010,10,23,04,55,0.20
2010,10,23,04,56,0.10
2010,10,23,04,57,0.10
2010,10,23,04,58,0.20
2010,10,23,04,59,0.00
2010,10,23,05,00,0.00
2010,10,23,05,01,0.00
2010,10,23,05,02,0.00
2010,10,23,05,03,0.10
2010,10,23,05,04,0.00
2010,10,23,05,05,0.00
2010,10,23,05,06,0.00
2010,10,23,05,07,0.00
2010,10,23,05,08,0.00
2010,10,23,05,09,0.00
2010,10,23,05,10,0.00
2010,10,23,05,11,0.10
2010,10,23,05,12,1.80
2010,10,23,05,13,1.90
2010,10,23,05,14,1.10
2010,10,23,05,15,0.90
2010,10,23,05,16,0.40
2010,10,23,05,17,0.30
2010,10,23,05,18,1.20
2010,10,23,05,19,2.20
2010,10,23,05,20,3.70
2010,10,23,05,21,4.50
2010,10,23,05,22,4.10
2010,10,23,05,23,4.80
2010,10,23,05,24,2.10
2010,10,23,05,25,5.60
2010,10,23,05,26,2.90
2010,10,23,05,27,0.00
2010,10,23,05,28,0.30
2010,10,23,05,29,0.60
2010,10,23,05,30,0.10
2010,10,23,05,31,0.60
2010,10,23,05,32,0.20
2010,10,23,05,33,0.00
2010,10,23,05,34,0.00
2010,10,23,05,35,0.20
2010,10,23,05,36,0.00
2010,10,23,05,37,0.50
2010,10,23,05,38,0.10
2010,10,23,05,39,0.10
2010,10,23,05,40,0.20
2010,10,23,05,41,1.00
2010,10,23,05,42,0.10
2010,10,23,05,43,0.10
2010,10,23,05,44,0.10
2010,10,23,05,45,0.00
2010,10,23,05,46,0.00
2010,10,23,05,47,0.00
2010,10,23,05,48,0.10
2010,10,23,05,49,0.00
2010,10,23,05,50,0.00
2010,10,23,05,51,0.00
2010,10,23,05,52,0.10
2010,10,23,05,53,0.60
2010,10,23,05,54,0.10
2010,10,23,05,55,0.00
2010,10,23,05,56,0.00
2010,10,23,05,57,0.40
2010,10,23,05,58,0.20
2010,10,23,05,59,0.00
2010,10,23,06,00,0.00
2010,10,23,06,01,0.00
2010,10,23,06,02,0.00
2010,10,23,06,03,0.10
2010,10,23,06,04,0.20
2010,10,23,06,05,0.00
2010,10,23,06,06,0.00
2010,10,23,06,07,0.00
2010,10,23,06,08,0.00
2010,10,23,06,09,0.80
2010,10,23,06,10,1.40
2010,10,23,06,11,1.60
2010,10,23,06,12,1.80
2010,10,23,06,13,1.20
2010,10,23,06,14,3.00
2010,10,23,06,15,1.40
2010,10,23,06,16,0.20
2010,10,23,06,17,0.20
2010,10,23,06,18,0.10
2010,10,23,06,19,0.00
2010,10,23,06,20,0.00
2010,10,23,06,21,0.00
2010,10,23,06,22,0.00
2010,10,23,06,23,0.00
2010,10,23,06,24,0.00
2010,10,23,06,25,0.00
2010,10,23,06,26,0.00
2010,10,23,06,27,0.00
2010,10,23,06,28,0.00
2010,10,23,06,29,0.00
2010,10,23,06,30,0.00
2010,10,23,06,31,0.00
2010,10,23,06,32,0.00
2010,10,23,06,33,0.10
2010,10,23,06,34,0.60
2010,10,23,06,35,1.40
2010,10,23,06,36,1.90
2010,10,23,06,37,3.40
2010,10,23,06,38,1.50
2010,10,23,06,39,5.80
2010,10,23,06,40,3.60
2010,10,23,06,41,4.30
2010,10,23,06,42,3.90
2010,10,23,06,43,1.70
2010,10,23,06,44,2.10
2010,10,23,06,45,0.00
2010,10,23,06,46,0.10
2010,10,23,06,47,0.00
2010,10,23,06,48,0.00
2010,10,23,06,49,0.10
2010,10,23,06,50,0.00
2010,10,23,06,51,0.00
2010,10,23,06,52,0.00
2010,10,23,06,53,0.00
2010,10,23,06,54,0.00
2010,10,23,06,55,0.00
2010,10,23,06,56,0.00
2010,10,23,06,57,0.00
2010,10,23,06,58,0.10
2010,10,23,06,59,0.70
2010,10,23,07,00,0.20
2010,10,23,07,01,0.00
2010,10,23,07,02,0.00
2010,10,23,07,03,0.10
2010,10,23,07,04,0.00
2010,10,23,07,05,0.10
2010,10,23,07,06,0.10
2010,10,23,07,07,0.00
2010,10,23,07,08,0.00
2010,10,23,07,09,0.00
2010,10,23,07,10,0.20
2010,10,23,07,11,0.00
2010,10,23,07,12,0.70
2010,10,23,07,13,0.40
2010,10,23,07,14,0.00
2010,10,23,07,15,0.70
2010,10,23,07,16,1.90
2010,10,23,07,17,3.70
2010,10,23,07,18,0.40
2010,10,23,07,19,2.60
2010,10,23,07,20,3.50
2010,10,23,07,21,1.70
2010,10,23,07,22,0.10
2010,10,23,07,23,0.10
2010,10,23,07,24,0.20
2010,10,23,07,25,3.90
2010,10,23,07,26,1.90
2010,10,23,07,27,1.80
2010,10,23,07,28,0.20
2010,10,23,07,29,1.60
2010,10,23,07,30,0.20
2010,10,23,07,31,0.10
2010,10,23,07,32,0.40
2010,10,23,07,33,0.10
2010,10,23,07,34,0.00
2010,10,23,07,35,1.10
2010,10,23,07,36,0.80
2010,10,23,07,37,0.50
2010,10,23,07,38,0.10
2010,10,23,07,39,0.10
2010,10,23,07,40,0.40
2010,10,23,07,41,0.10
2010,10,23,07,42,0.10
2010,10,23,07,43,0.20
2010,10,23,07,44,0.70
2010,10,23,07,45,0.60
2010,10,23,07,46,2.30
2010,10,23,07,47,2.90
2010,10,23,07,48,1.50
2010,10,23,07,49,1.90
2010,10,23,07,50,1.00
2010,10,23,07,51,0.10
2010,10,23,07,52,0.10
2010,10,23,07,53,0.10
2010,10,23,07,54,0.00
2010,10,23,07,55,0.10
2010,10,23,07,56,0.00
2010,10,23,07,57,0.20
2010,10,23,07,58,0.80
2010,10,23,07,59,0.50
2010,10,23,08,00,2.00
2010,10,23,08,01,0.90
2010,10,23,08,02,0.10
2010,10,23,08,03,1.50
2010,10,23,08,04,0.30
2010,10,23,08,05,0.30
2010,10,23,08,06,2.10
2010,10,23,08,07,2.10
2010,10,23,08,08,2.00
2010,10,23,08,09,2.50
2010,10,23,08,10,0.50
2010,10,23,08,11,0.10
2010,10,23,08,12,0.80
2010,10,23,08,13,4.00
2010,10,23,08,14,0.60
2010,10,23,08,15,0.70
2010,10,23,08,16,1.30
2010,10,23,08,17,1.70
2010,10,23,08,18,3.00
2010,10,23,08,19,1.40
2010,10,23,08,20,2.90
2010,10,23,08,21,2.50
2010,10,23,08,22,2.90
2010,10,23,08,23,3.90
2010,10,23,08,24,1.80
2010,10,23,08,25,1.00
2010,10,23,08,26,2.50
2010,10,23,08,27,0.70
2010,10,23,08,28,2.50
2010,10,23,08,29,4.40
2010,10,23,08,30,4.30
2010,10,23,08,31,0.50
2010,10,23,08,32,1.40
2010,10,23,08,33,1.80
2010,10,23,08,34,3.80
2010,10,23,08,35,4.40
2010,10,23,08,36,3.90
2010,10,23,08,37,8.10
2010,10,23,08,38,6.20
2010,10,23,08,39,9.70
2010,10,23,08,40,2.50
2010,10,23,08,41,4.30
2010,10,23,08,42,6.40
2010,10,23,08,43,2.10
2010,10,23,08,44,6.20
2010,10,23,08,45,6.70
2010,10,23,08,46,3.40
2010,10,23,08,47,4.20
2010,10,23,08,48,8.20
2010,10,23,08,49,4.60
2010,10,23,08,50,4.30
2010,10,23,08,51,5.00
2010,10,23,08,52,4.40
2010,10,23,08,53,2.00
2010,10,23,08,54,5.50
2010,10,23,08,55,3.60
2010,10,23,08,56,3.90
2010,10,23,08,57,0.30
2010,10,23,08,58,1.40
2010,10,23,08,59,1.30
2010,10,23,09,00,3.40
2010,10,23,09,01,1.90
2010,10,23,09,02,2.40
2010,10,23,09,03,0.30
2010,10,23,09,04,3.00
2010,10,23,09,05,1.30
2010,10,23,09,06,3.30
2010,10,23,09,07,1.50
2010,10,23,09,08,5.70
2010,10,23,09,09,1.90
2010,10,23,09,10,3.30
2010,10,23,09,11,6.60
2010,10,23,09,12,6.60
2010,10,23,09,13,5.60
2010,10,23,09,14,2.30
2010,10,23,09,15,5.60
2010,10,23,09,16,5.80
2010,10,23,09,17,9.20
2010,10,23,09,18,5.40
2010,10,23,09,19,8.60
2010,10,23,09,20,4.60
2010,10,23,09,21,8.00
2010,10,23,09,22,5.20
2010,10,23,09,23,8.10
2010,10,23,09,24,7.30
2010,10,23,09,25,7.90
2010,10,23,09,26,0.80
2010,10,23,09,27,1.90
2010,10,23,09,28,5.70
2010,10,23,09,29,6.10
2010,10,23,09,30,5.00
2010,10,23,09,31,0.80
2010,10,23,09,32,0.40
2010,10,23,09,33,2.00
2010,10,23,09,34,1.30
2010,10,23,09,35,2.50
2010,10,23,09,36,5.70
2010,10,23,09,37,4.40
2010,10,23,09,38,5.30
2010,10,23,09,39,0.70
2010,10,23,09,40,2.70
2010,10,23,09,41,4.40
2010,10,23,09,42,3.00
2010,10,23,09,43,2.30
2010,10,23,09,44,4.40
2010,10,23,09,45,9.10
2010,10,23,09,46,1.10
2010,10,23,09,47,7.40
2010,10,23,09,48,5.40
2010,10,23,09,49,4.70
2010,10,23,09,50,4.90
2010,10,23,09,51,4.30
2010,10,23,09,52,3.40
2010,10,23,09,53,9.70
2010,10,23,09,54,4.80
2010,10,23,09,55,5.90
2010,10,23,09,56,8.50
2010,10,23,09,57,7.80
2010,10,23,09,58,5.30
2010,10,23,09,59,9.70
2010,10,23,10,00,5.30
2010,10,23,10,01,4.20
2010,10,23,10,02,8.80
2010,10,23,10,03,3.90
2010,10,23,10,04,5.70
2010,10,23,10,05,6.90
2010,10,23,10,06,7.60
2010,10,23,10,07,5.60
2010,10,23,10,08,0.50
2010,10,23,10,09,7.00
2010,10,23,10,10,5.00
2010,10,23,10,11,7.20
2010,10,23,10,12,10.30
2010,10,23,10,13,9.30
2010,10,23,10,14,7.30
2010,10,23,10,15,8.00
2010,10,23,10,16,7.00
2010,10,23,10,17,7.40
2010,10,23,10,18,8.70
2010,10,23,10,19,3.90
2010,10,23,10,20,5.90
2010,10,23,10,21,2.00
2010,10,23,10,22,6.70
2010,10,23,10,23,9.00
2010,10,23,10,24,12.50
2010,10,23,10,25,9.10
2010,10,23,10,26,5.60
2010,10,23,10,27,11.90
2010,10,23,10,28,8.00
2010,10,23,10,29,7.40
2010,10,23,10,30,7.60
2010,10,23,10,31,5.00
2010,10,23,10,32,8.30
2010,10,23,10,33,9.50
2010,10,23,10,34,7.30
2010,10,23,10,35,13.50
2010,10,23,10,36,8.40
2010,10,23,10,37,6.10
2010,10,23,10,38,5.20
2010,10,23,10,39,7.10
2010,10,23,10,40,8.70
2010,10,23,10,41,7.80
2010,10,23,10,42,0.90
2010,10,23,10,43,6.90
2010,10,23,10,44,3.50
2010,10,23,10,45,5.70
2010,10,23,10,46,12.90
2010,10,23,10,47,4.80
2010,10,23,10,48,5.20
2010,10,23,10,49,5.80
2010,10,23,10,50,9.10
2010,10,23,10,51,3.20
2010,10,23,10,52,3.50
2010,10,23,10,53,4.50
2010,10,23,10,54,7.00
2010,10,23,10,55,1.70
2010,10,23,10,56,8.10
2010,10,23,10,57,8.00
2010,10,23,10,58,9.50
2010,10,23,10,59,5.10
2010,10,23,11,00,7.20
2010,10,23,11,01,7.20
2010,10,23,11,02,8.10
2010,10,23,11,03,10.70
2010,10,23,11,04,11.40
2010,10,23,11,05,6.50
2010,10,23,11,06,9.10
2010,10,23,11,07,6.90
2010,10,23,11,08,8.00
2010,10,23,11,09,5.90
2010,10,23,11,10,4.00
2010,10,23,11,11,5.80
2010,10,23,11,12,3.30
2010,10,23,11,13,14.00
2010,10,23,11,14,10.60
2010,10,23,11,15,8.30
2010,10,23,11,16,7.80
2010,10,23,11,17,7.60
2010,10,23,11,18,5.70
2010,10,23,11,19,12.50
2010,10,23,11,20,11.60
2010,10,23,11,21,9.60
2010,10,23,11,22,15.10
2010,10,23,11,23,13.30
2010,10,23,11,24,12.50
2010,10,23,11,25,12.50
2010,10,23,11,26,11.40
2010,10,23,11,27,10.00
2010,10,23,11,28,13.80
2010,10,23,11,29,10.50
2010,10,23,11,30,8.50
2010,10,23,11,31,9.30
2010,10,23,11,32,4.10
2010,10,23,11,33,6.50
2010,10,23,11,34,13.10
2010,10,23,11,35,10.80
2010,10,23,11,36,14.60
2010,10,23,11,37,9.00
2010,10,23,11,38,9.80
2010,10,23,11,39,9.90
2010,10,23,11,40,7.20
2010,10,23,11,41,3.10
2010,10,23,11,42,9.90
2010,10,23,11,43,9.40
2010,10,23,11,44,6.90
2010,10,23,11,45,14.10
2010,10,23,11,46,11.70
2010,10,23,11,47,10.20
2010,10,23,11,48,11.70
2010,10,23,11,49,11.30
2010,10,23,11,50,9.30
2010,10,23,11,51,11.00
2010,10,23,11,52,7.30
2010,10,23,11,53,13.00
2010,10,23,11,54,12.70
2010,10,23,11,55,13.10
2010,10,23,11,56,11.40
2010,10,23,11,57,10.60
2010,10,23,11,58,10.60
2010,10,23,11,59,10.60
2010,10,23,12,00,10.30
2010,10,23,12,01,15.60
2010,10,23,12,02,9.90
2010,10,23,12,03,8.30
2010,10,23,12,04,8.60
2010,10,23,12,05,7.00
2010,10,23,12,06,16.50
2010,10,23,12,07,8.30
2010,10,23,12,08,11.90
2010,10,23,12,09,6.80
2010,10,23,12,10,10.10
2010,10,23,12,11,12.10
2010,10,23,12,12,9.10
2010,10,23,12,13,14.60
2010,10,23,12,14,7.50
2010,10,23,12,15,3.00
2010,10,23,12,16,8.60
2010,10,23,12,17,10.50
2010,10,23,12,18,9.10
2010,10,23,12,19,11.50
2010,10,23,12,20,8.70
2010,10,23,12,21,6.40
2010,10,23,12,22,8.90
2010,10,23,12,23,13.20
2010,10,23,12,24,13.60
2010,10,23,12,25,8.30
2010,10,23,12,26,11.30
2010,10,23,12,27,9.00
2010,10,23,12,28,7.60
2010,10,23,12,29,4.60
2010,10,23,12,30,6.20
2010,10,23,12,31,13.30
2010,10,23,12,32,9.90
2010,10,23,12,33,5.80
2010,10,23,12,34,6.40
2010,10,23,12,35,7.50
2010,10,23,12,36,12.10
2010,10,23,12,37,10.90
2010,10,23,12,38,10.40
2010,10,23,12,39,12.50
2010,10,23,12,40,13.60
2010,10,23,12,41,10.90
2010,10,23,12,42,13.00
2010,10,23,12,43,14.80
2010,10,23,12,44,12.20
2010,10,23,12,45,8.60
2010,10,23,12,46,13.60
2010,10,23,12,47,10.20
2010,10,23,12,48,11.20
2010,10,23,12,49,6.10
2010,10,23,12,50,5.70
2010,10,23,12,51,8.00
2010,10,23,12,52,9.80
2010,10,23,12,53,14.10
2010,10,23,12,54,14.00
2010,10,23,12,55,5.40
2010,10,23,12,56,11.20
2010,10,23,12,57,13.20
2010,10,23,12,58,7.50
2010,10,23,12,59,10.40
2010,10,23,13,00,14.00
2010,10,23,13,01,12.20
2010,10,23,13,02,11.20
2010,10,23,13,03,9.10
2010,10,23,13,04,9.00
2010,10,23,13,05,8.90
2010,10,23,13,06,7.80
2010,10,23,13,07,9.80
2010,10,23,13,08,10.80
2010,10,23,13,09,13.00
2010,10,23,13,10,6.00
2010,10,23,13,11,10.40
2010,10,23,13,12,8.30
2010,10,23,13,13,11.30
2010,10,23,13,14,11.20
2010,10,23,13,15,12.70
2010,10,23,13,16,10.30
2010,10,23,13,17,6.20
2010,10,23,13,18,7.60
2010,10,23,13,19,8.50
2010,10,23,13,20,8.10
2010,10,23,13,21,8.60
2010,10,23,13,22,8.80
2010,10,23,13,23,9.20
2010,10,23,13,24,6.30
2010,10,23,13,25,8.40
2010,10,23,13,26,8.00
2010,10,23,13,27,2.80
2010,10,23,13,28,4.70
2010,10,23,13,29,8.70
2010,10,23,13,30,8.50
2010,10,23,13,31,10.60
2010,10,23,13,32,6.80
2010,10,23,13,33,8.40
2010,10,23,13,34,8.70
2010,10,23,13,35,5.60
2010,10,23,13,36,9.70
2010,10,23,13,37,6.80
2010,10,23,13,38,6.80
2010,10,23,13,39,8.60
2010,10,23,13,40,5.10
2010,10,23,13,41,8.30
2010,10,23,13,42,7.50
2010,10,23,13,43,5.20
2010,10,23,13,44,4.50
2010,10,23,13,45,4.30
2010,10,23,13,46,9.90
2010,10,23,13,47,5.80
2010,10,23,13,48,8.80
2010,10,23,13,49,3.30
2010,10,23,13,50,7.90
2010,10,23,13,51,10.40
2010,10,23,13,52,1.00
2010,10,23,13,53,4.60
2010,10,23,13,54,9.30
2010,10,23,13,55,4.50
2010,10,23,13,56,6.90
2010,10,23,13,57,8.10
2010,10,23,13,58,3.60
2010,10,23,13,59,0.80
2010,10,23,14,00,6.00
2010,10,23,14,01,10.70
2010,10,23,14,02,7.40
2010,10,23,14,03,6.70
2010,10,23,14,04,9.00
2010,10,23,14,05,1.50
2010,10,23,14,06,6.40
2010,10,23,14,07,9.10
2010,10,23,14,08,10.20
2010,10,23,14,09,8.70
2010,10,23,14,10,9.60
2010,10,23,14,11,5.20
2010,10,23,14,12,6.10
2010,10,23,14,13,7.20
2010,10,23,14,14,9.80
2010,10,23,14,15,5.40
2010,10,23,14,16,1.70
2010,10,23,14,17,8.00
2010,10,23,14,18,1.80
2010,10,23,14,19,7.80
2010,10,23,14,20,4.50
2010,10,23,14,21,4.70
2010,10,23,14,22,2.00
2010,10,23,14,23,2.30
2010,10,23,14,24,6.70
2010,10,23,14,25,5.90
2010,10,23,14,26,13.00
2010,10,23,14,27,7.10
2010,10,23,14,28,4.20
2010,10,23,14,29,2.50
2010,10,23,14,30,9.70
2010,10,23,14,31,9.90
2010,10,23,14,32,4.50
2010,10,23,14,33,2.30
2010,10,23,14,34,7.40
2010,10,23,14,35,8.00
2010,10,23,14,36,14.90
2010,10,23,14,37,9.70
2010,10,23,14,38,12.10
2010,10,23,14,39,4.30
2010,10,23,14,40,4.70
2010,10,23,14,41,4.00
2010,10,23,14,42,3.40
2010,10,23,14,43,5.20
2010,10,23,14,44,3.20
2010,10,23,14,45,6.30
2010,10,23,14,46,6.40
2010,10,23,14,47,2.90
2010,10,23,14,48,6.00
2010,10,23,14,49,4.10
2010,10,23,14,50,3.80
2010,10,23,14,51,1.00
2010,10,23,14,52,5.60
2010,10,23,14,53,7.40
2010,10,23,14,54,5.30
2010,10,23,14,55,9.10
2010,10,23,14,56,5.40
2010,10,23,14,57,8.30
2010,10,23,14,58,9.10
2010,10,23,14,59,13.60
2010,10,23,15,00,9.80
2010,10,23,15,01,4.20
2010,10,23,15,02,4.70
2010,10,23,15,03,8.40
2010,10,23,15,04,5.40
2010,10,23,15,05,6.00
2010,10,23,15,06,7.30
2010,10,23,15,07,11.90
2010,10,23,15,08,13.20
2010,10,23,15,09,11.50
2010,10,23,15,10,10.90
2010,10,23,15,11,12.30
2010,10,23,15,12,8.70
2010,10,23,15,13,10.40
2010,10,23,15,14,7.00
2010,10,23,15,15,13.80
2010,10,23,15,16,10.50
2010,10,23,15,17,10.40
2010,10,23,15,18,8.10
2010,10,23,15,19,6.10
2010,10,23,15,20,8.20
2010,10,23,15,21,7.30
2010,10,23,15,22,8.10
2010,10,23,15,23,9.30
2010,10,23,15,24,5.20
2010,10,23,15,25,9.50
2010,10,23,15,26,9.10
2010,10,23,15,27,15.20
2010,10,23,15,28,11.00
2010,10,23,15,29,10.50
2010,10,23,15,30,9.50
2010,10,23,15,31,6.70
2010,10,23,15,32,5.50
2010,10,23,15,33,17.00
2010,10,23,15,34,8.50
2010,10,23,15,35,12.30
2010,10,23,15,36,9.80
2010,10,23,15,37,13.60
2010,10,23,15,38,12.40
2010,10,23,15,39,16.90
2010,10,23,15,40,18.50
2010,10,23,15,41,14.40
2010,10,23,15,42,15.20
2010,10,23,15,43,19.90
2010,10,23,15,44,17.80
2010,10,23,15,45,15.00
2010,10,23,15,46,8.10
2010,10,23,15,47,8.90
2010,10,23,15,48,14.30
2010,10,23,15,49,11.40
2010,10,23,15,50,8.00
2010,10,23,15,51,9.50
2010,10,23,15,52,9.50
2010,10,23,15,53,19.60
2010,10,23,15,54,16.70
2010,10,23,15,55,12.20
2010,10,23,15,56,17.30
2010,10,23,15,57,17.20
2010,10,23,15,58,10.70
2010,10,23,15,59,13.00
2010,10,23,16,00,6.20
2010,10,23,16,01,5.60
2010,10,23,16,02,17.00
2010,10,23,16,03,17.10
2010,10,23,16,04,13.00
2010,10,23,16,05,12.40
2010,10,23,16,06,15.20
2010,10,23,16,07,15.30
2010,10,23,16,08,14.60
2010,10,23,16,09,12.00
2010,10,23,16,10,18.20
2010,10,23,16,11,19.30
2010,10,23,16,12,14.30
2010,10,23,16,13,14.50
2010,10,23,16,14,15.10
2010,10,23,16,15,13.00
2010,10,23,16,16,17.30
2010,10,23,16,17,20.10
2010,10,23,16,18,17.20
2010,10,23,16,19,10.00
2010,10,23,16,20,16.10
2010,10,23,16,21,16.10
2010,10,23,16,22,17.50
2010,10,23,16,23,15.30
2010,10,23,16,24,11.70
2010,10,23,16,25,17.40
2010,10,23,16,26,11.30
2010,10,23,16,27,13.60
2010,10,23,16,28,14.60
2010,10,23,16,29,16.50
2010,10,23,16,30,9.30
2010,10,23,16,31,12.80
2010,10,23,16,32,11.50
2010,10,23,16,33,15.30
2010,10,23,16,34,17.60
2010,10,23,16,35,14.00
2010,10,23,16,36,8.50
2010,10,23,16,37,13.70
2010,10,23,16,38,11.10
2010,10,23,16,39,10.80
2010,10,23,16,40,14.30
2010,10,23,16,41,5.40
2010,10,23,16,42,12.00
2010,10,23,16,43,9.20
2010,10,23,16,44,13.30
2010,10,23,16,45,11.90
2010,10,23,16,46,10.40
2010,10,23,16,47,16.40
2010,10,23,16,48,12.60
2010,10,23,16,49,14.50
2010,10,23,16,50,10.30
2010,10,23,16,51,11.80
2010,10,23,16,52,14.20
2010,10,23,16,53,14.30
2010,10,23,16,54,14.80
2010,10,23,16,55,12.30
2010,10,23,16,56,10.20
2010,10,23,16,57,9.60
2010,10,23,16,58,6.90
2010,10,23,16,59,12.80
2010,10,23,17,00,12.60
2010,10,23,17,01,7.50
2010,10,23,17,02,10.60
2010,10,23,17,03,10.70
2010,10,23,17,04,16.00
2010,10,23,17,05,15.60
2010,10,23,17,06,11.40
2010,10,23,17,07,9.70
2010,10,23,17,08,7.40
2010,10,23,17,09,13.00
2010,10,23,17,10,16.00
2010,10,23,17,11,10.90
2010,10,23,17,12,13.60
2010,10,23,17,13,11.40
2010,10,23,17,14,11.50
2010,10,23,17,15,10.40
2010,10,23,17,16,13.50
2010,10,23,17,17,10.70
2010,10,23,17,18,10.30
2010,10,23,17,19,10.90
2010,10,23,17,20,9.50
2010,10,23,17,21,12.80
2010,10,23,17,22,19.30
2010,10,23,17,23,13.00
2010,10,23,17,24,17.00
2010,10,23,17,25,11.80
2010,10,23,17,26,14.30
2010,10,23,17,27,14.90
2010,10,23,17,28,12.90
2010,10,23,17,29,18.10
2010,10,23,17,30,17.60
2010,10,23,17,31,18.50
2010,10,23,17,32,13.60
2010,10,23,17,33,13.40
2010,10,23,17,34,9.90
2010,10,23,17,35,14.50
2010,10,23,17,36,15.90
2010,10,23,17,37,14.80
2010,10,23,17,38,19.20
2010,10,23,17,39,12.80
2010,10,23,17,40,17.10
2010,10,23,17,41,16.90
2010,10,23,17,42,13.00
2010,10,23,17,43,15.00
2010,10,23,17,44,13.70
2010,10,23,17,45,10.60
2010,10,23,17,46,11.40
2010,10,23,17,47,10.50
2010,10,23,17,48,11.30
2010,10,23,17,49,17.60
2010,10,23,17,50,20.60
2010,10,23,17,51,16.80
2010,10,23,17,52,16.80
2010,10,23,17,53,19.70
2010,10,23,17,54,15.30
2010,10,23,17,55,16.80
2010,10,23,17,56,18.70
2010,10,23,17,57,16.40
2010,10,23,17,58,18.80
2010,10,23,17,59,13.00